Location: Shenandoah County Park
(38.9356°N, 78.4524°W)
Time: 06:47:32
(UTC-04:00)

Vanguard 1 Rocket - Pass Details

Date: 07 February 2023
Orbit: 652 x 4223 km, 34.3° (Epoch: 26 March)

Event Time Altitude Azimuth Distance (km) Brightness Sun altitude
Rises 12:33:26 0° 254° (WSW) 4,182 11.0 35.8°
Reaches altitude 10° 12:35:41 10° 251° (WSW) 3,499 10.7 35.8°
Maximum altitude 12:44:58 71° 170° (S) 2,266 10.5 35.7°
Drops below altitude 10° 13:03:44 10° 92° (E) 6,567 11.8 35.2°
Sets 13:09:50 0° 91° (E) 7,996 12.1 35.0°
